Regional Weather Roundup
Issued by NWS Goodland, KS

Home | Current Version | Previous Version | Graphics & Text | Print | Product List | Glossary On
Versions: 1 2 3 4 5 6 7 8 9 10 11 12 13 14 15 16 17 18 19 20 21 22 23 24 25 26 27 28 29 30 31 32 33 34 35 36 37 38 39 40 41 42 43 44 45 46 47 48 49 50
000
ASUS43 KGLD 251759
RWRGLD

GOODLAND FORECAST AREA HOURLY WEATHER ROUNDUP
NATIONAL WEATHER SERVICE GOODLAND KS
1200 PM MDT SUN JUN 25 2017

...OFFICIAL OBSERVATIONS...

CITY           SKY/WX    TMP DP  RH WIND       PRES   REMARKS
GOODLAND KS    CLOUDY    62  59  90 E15       30.34F
HILL CITY KS   RAIN      58  54  86 E7        30.38R FOG
IMPERIAL NEB   LGT RAIN  63  41  44 SE15      30.34F
MCCOOK NEB     CLOUDY    69  45  41 E14       30.34F
AKRON CO       CLOUDY    58  51  78 E16       30.36F
BURLINGTON CO  MOSUNNY   68  54  60 E14       30.34F
LIMON CO       MOSUNNY   73  53  49 E15G23    30.33F
$$

...UNOFFICIAL OBSERVATIONS...

CITY           SKY/WX    TMP DP  RH WIND       PRES   REMARKS
LENORA KS        N/A     57  32  39 MISG        N/A
NORTON KS      CLOUDY    64  45  48 E7        30.35F
SHARON SPRINGS   N/A     66  56  71 E18G28      N/A
TRENTON NEB      N/A     67  32  27 SE9         N/A
KIT CARSON CO    N/A     69  54  58 MISG        N/A
YUMA CO        CLOUDY    54  52  94 E10       30.36F
$$




USA.gov is the U.S. government's official web portal to all federal, state and local government web resources and services.